TimeCST,TemperatureF,Dew PointF,Humidity,Sea Level PressureIn,VisibilityMPH,Wind Direction,Wind SpeedMPH,Gust SpeedMPH,PrecipitationIn,Events,Conditions,WindDirDegrees,DateUTC
12:53 AM,46.0,32.0,58,30.07,10.0,SSW,5.8,-,N/A,,Clear,210,2013-12-19 06:53:00
1:53 AM,46.0,33.1,61,30.07,10.0,South,6.9,-,N/A,,Clear,190,2013-12-19 07:53:00
2:53 AM,46.9,35.1,63,30.07,10.0,South,8.1,-,N/A,,Clear,190,2013-12-19 08:53:00
3:53 AM,48.0,36.0,63,30.06,10.0,SSW,10.4,18.4,N/A,,Clear,200,2013-12-19 09:53:00
4:53 AM,48.0,36.0,63,30.07,10.0,SSW,9.2,19.6,N/A,,Clear,200,2013-12-19 10:53:00
5:53 AM,48.0,36.0,63,30.06,10.0,SSW,9.2,17.3,N/A,,Clear,200,2013-12-19 11:53:00
6:53 AM,48.0,37.0,66,30.08,10.0,SSW,5.8,-,N/A,,Clear,200,2013-12-19 12:53:00
7:53 AM,48.9,37.9,66,30.09,10.0,SSW,11.5,19.6,N/A,,Clear,210,2013-12-19 13:53:00
8:53 AM,52.0,39.9,63,30.09,10.0,SSW,11.5,21.9,N/A,,Clear,200,2013-12-19 14:53:00
9:53 AM,55.0,41.0,59,30.09,10.0,SSW,15.0,21.9,N/A,,Scattered Clouds,200,2013-12-19 15:53:00
10:53 AM,57.0,43.0,59,30.08,10.0,SW,15.0,23.0,N/A,,Mostly Cloudy,220,2013-12-19 16:53:00
11:53 AM,57.0,44.1,62,30.06,10.0,SSW,12.7,21.9,N/A,,Clear,200,2013-12-19 17:53:00
12:53 PM,60.1,46.0,60,30.03,10.0,South,11.5,19.6,N/A,,Partly Cloudy,190,2013-12-19 18:53:00
1:53 PM,59.0,45.0,60,30.01,10.0,South,9.2,-,N/A,,Scattered Clouds,180,2013-12-19 19:53:00
2:53 PM,60.1,45.0,57,29.98,10.0,SSW,11.5,18.4,N/A,,Partly Cloudy,210,2013-12-19 20:53:00
3:53 PM,60.1,46.0,60,29.96,10.0,South,10.4,18.4,N/A,,Partly Cloudy,180,2013-12-19 21:53:00
4:53 PM,57.9,46.0,65,29.95,10.0,South,6.9,-,N/A,,Partly Cloudy,180,2013-12-19 22:53:00
5:53 PM,55.9,46.9,72,29.94,10.0,South,12.7,-,N/A,,Partly Cloudy,170,2013-12-19 23:53:00
6:53 PM,57.0,46.9,69,29.94,10.0,South,12.7,-,N/A,,Overcast,170,2013-12-20 00:53:00
7:53 PM,57.0,46.9,69,29.93,10.0,South,12.7,19.6,N/A,,Overcast,180,2013-12-20 01:53:00
8:53 PM,59.0,48.0,67,29.92,10.0,South,11.5,-,N/A,,Overcast,180,2013-12-20 02:53:00
9:53 PM,60.1,48.0,64,29.91,10.0,South,11.5,21.9,N/A,,Overcast,180,2013-12-20 03:53:00
10:53 PM,60.1,48.9,67,29.91,10.0,South,11.5,23.0,N/A,,Overcast,190,2013-12-20 04:53:00
11:53 PM,60.1,48.9,67,29.90,10.0,South,11.5,24.2,N/A,,Overcast,180,2013-12-20 05:53:00